www.pogodaiklimat.ru

Погода и климат >> Архив погоды >> Индонезия >> Sentani Airport


ПОГОДА в Sentani Airport

  • Прогноз погоды в Sentani Airport
  • Монитор погоды в Sentani Airport
  • Климат города

АРХИВ ПОГОДЫ в Sentani Airport

Время (UTC), дата Ветер
(напр.,м/с)
 
Видим.   Явления Облачность Т
(С)
Тd
(С)
f
(%)
Тe
(С)
Тes
(С)
Комфортность P
(гПа)
Po
(гПа)
Тmin
(С)
Tmax
(С)
R
(мм)
R24
(мм)
S
(см)
00 19.02 штиль 0 9000 м {дождь} 9/4 400 м
[Cu med, cong Ac trans Cs]
+26.4 +25.9 97 +39 +45 очень
душно
1011.3 1001.7 +24.0 0.2
03 19.02 З 2 10 км 9/4 420 м
[Cu med, cong Ac trans Cs]
+29.0 +26.0 84 +44 +51 опасность
перегрева
1008.7 999.2 0.0
06 19.02 З 3 10 км 9/4 420 м
[Cu med, cong Ac trans Ci fib]
+30.6 +25.6 75 +45 +48 опасность
перегрева
1006.5 996.9 0.0
09 19.02 ЮЗ 3 10 км 9/3 400 м
[Cb cap Ac cast Ci fib]
+28.9 +24.0 75 +40 +40 очень
душно
1008.0 998.4
12 19.02 З 3 8000 м 10/3 400 м
[Cu Sc Ac trans Ci fib]
+26.1 +24.0 88 +36 +36 очень
душно
1010.0 1000.5 +30.4
15 19.02 В 2 9000 м 10/3 400 м
[Cu Sc Ac trans Ci sp]
+25.7 +23.9 90 +35 +35 очень
душно
1008.6 999.1
18 19.02 В 2 9000 м 10/3 400 м
[Cu Sc Ac trans Ci sp]
+25.7 +23.9 90 +35 +35 очень
душно
1008.6 999.1
21 19.02 С 2 10 км 9/1 270 м
[Frnb Ac trans Ci sp]
+23.7 +22.5 93 +31 +31 очень
душно
1008.1 998.8
00 20.02 З 2 10 км 6/6 420 м
[]
+28.6 +24.8 80 +41 +46 опасность
перегрева
1009.5 1000.0 +23.8
03 20.02 штиль 0 10 км 6/4 420 м
[Cu med, cong Ac trans Ci fib]
+31.2 +23.6 64 +42 +57 опасность
перегрева
1007.1 997.5
06 20.02 З 8 10 км 5/4 400 м
[Cu med, cong Ac trans Ci fib]
+32.0 +23.5 61 +43 +44 опасность
перегрева
1004.6 995.1
09 20.02 З 6 10 км 6/3 420 м
[Cu med, cong Ac trans Ci fib]
+27.8 +22.1 71 +36 +36 очень
душно
1006.1 996.6
12 20.02 штиль 0 9000 м 6/3 420 м
[Cu med, cong Ac trans Ci fib]
+25.5 +21.8 80 +33 +33 очень
душно
1008.2 998.7 +33.9
15 20.02 СВ 2 9000 м 8/3 420 м
[Cu med, cong Ac trans Ci fib]
+24.4 +21.3 83 +31 +31 очень
душно
1007.8 998.3
18 20.02 штиль 0 8000 м 8/3 420 м
[Cu med, cong Ac trans Ci fib]
+24.0 +22.5 91 +31 +31 очень
душно
1006.7 997.2
21 20.02 штиль 0 9000 м 8/4 400 м
[Cu Sc Ac trans Ci fib]
+23.8 +22.6 93 +31 +31 очень
душно
1008.0 998.5
00 21.02 З 3 10 км 6/4 420 м
[Cu med, cong Ac trans Ci fib]
+29.2 +25.0 78 +42 +47 опасность
перегрева
1008.1 998.5 +23.7
03 21.02 З 6 10 км 8/4 420 м
[Cu med, cong Ac trans Ci fib]
+32.2 +24.6 64 +45 +48 опасность
перегрева
1006.0 996.5
06 21.02 З 8 10 км 5/4 400 м
[Cu med, cong Ac trans Ci sp]
+32.2 +22.2 56 +41 +42 опасность
перегрева
1003.4 993.9
09 21.02 З 5 9000 м осадки на расстоянии {дождь} 8/4 400 м
[Cb calv Ac cuf Ci sp]
+28.0 +22.0 70 +36 +36 очень
душно
1005.2 996.0 0.0
12 21.02 штиль 0 9000 м {дождь} 8/3 400 м
[Cu med, cong Ac trans Ci sp]
+26.3 +22.1 78 +34 +34 очень
душно
1007.3 997.8 +33.0 0.0
15 21.02 З 1 9000 м 9/3 400 м
[Cu med, cong Ac trans Cs]
+26.0 +23.7 87 +35 +35 очень
душно
1007.6 998.1
18 21.02 штиль 0 9000 м в посл. час дождь 8/3 300 м
[Frnb Ac As Ci sp]
+24.3 +23.3 94 +33 +33 очень
душно
1006.8 997.2 1
21 21.02 З 2 9000 м 9/4 300 м
[Frnb Ac trans Cs]
+24.0 +21.7 87 +31 +31 очень
душно
1007.8 998.3
00 22.02 Ю 1 10 км гроза без осадков {дождь} 9/6 360 м
[Cb cap Ac trans Cs]
+25.8 +24.6 93 +36 +40 очень
душно
1010.2 1000.7 +24.0 0.1
03 22.02 З 3 10 км 8/4 400 м
[Cu Sc Ac trans Ci fib]
+27.9 +24.3 81 +39 +46 очень
душно
1007.3 997.8 0.0
06 22.02 З 3 10 км 8/5 400 м
[Cu med, cong Ac trans Ci fib]
+30.2 +24.1 70 +42 +45 опасность
перегрева
1004.2 994.7 0.0
09 22.02 З 4 10 км 8/3 420 м
[Cu med, cong Ac As Ci sp]
+28.7 +24.5 78 +41 +41 опасность
перегрева
1004.0 994.5
12 22.02 З 3 9000 м 6/3 420 м
[Cu Sc Ac trans Ci sp]
+26.1 +24.2 89 +36 +36 очень
душно
1006.9 997.4 +31.2
15 22.02 штиль 0 9000 м 8/4 360 м
[Cu Sc Ac trans Ci sp]
+24.9 +22.6 87 +33 +33 очень
душно
1007.7 998.1
18 22.02 ЮЗ 1 9000 м 10/4 300 м
[Frnb Ac As Cs]
+24.6 +22.9 90 +33 +33 очень
душно
1006.5 997.0
21 22.02 С 1 7000 м осадки на расстоянии {дождь} 9/5 300 м
[Cb calv Ac As Cs]
+24.6 +23.2 92 +33 +33 очень
душно
1008.5 998.9 0.0
00 23.02 ЮЗ 1 10 км {дождь} 8/3 400 м
[Cu hum Ac trans Ci fib]
+27.4 +25.2 88 +40 +47 очень
душно
1009.8 1000.2 +24.3 0.9
03 23.02 З 3 10 км 8/4 420 м
[Cu med, cong Ac trans Ci fib]
+31.4 +25.0 69 +45 +52 опасность
перегрева
1007.4 997.9
06 23.02 З 6 10 км 5/4 420 м
[Cu med, cong Ac trans Ci fib]
+32.6 +24.3 62 +45 +47 опасность
перегрева
1004.7 995.2
09 23.02 З 3 10 км 9/5 360 м
[Cb cap Ac trans Ci fib]
+29.0 +23.4 72 +39 +39 очень
душно
1006.3 996.8
12 23.02 Ю 1 10 км зарница 9/5 360 м
[Cb cap Ac trans Cs]
+27.4 +24.5 84 +39 +39 очень
душно
1008.8 999.3 +33.5
15 23.02 З 3 10 км 8/4 400 м
[Cu med, cong Ac trans Cs]
+25.8 +23.5 87 +35 +35 очень
душно
1008.4 998.8
18 23.02 штиль 0 5000 м слабый дождь {гроза} 9/5 360 м
[Cb cap Ac trans Cs]
+24.7 +23.3 92 +33 +33 очень
душно
1008.1 998.5 2
21 23.02 З 2 8000 м в посл. час дождь 9/5 300 м
[Frnb Ac As Ci fib]
+23.1 +22.4 96 +32 +32 очень
душно
1009.7 1000.1 26
00 24.02 З 2 10 км в посл. час дождь 6/3 360 м
[Cu Sc Ac trans Ci sp]
+25.1 +23.9 93 +34 +42 очень
душно
1011.1 1001.6 +23.0 4
03 24.02 ЮВ 3 10 км 5/4 420 м
[Cu med, cong Ac trans Ci sp]
+30.9 +24.3 68 +43 +54 опасность
перегрева
1008.5 998.9 0.0
09 24.02 З 4 10 км 5/3 360 м
[Cb calv Ac trans Ci fib]
+28.2 +24.2 79 +39 +39 очень
душно
1007.3 997.8
12 24.02 штиль 0 10 км {дождь} 6/1 400 м
[Cu med, cong Ac trans Ci fib]
+26.7 +24.0 85 +37 +37 очень
душно
1009.3 999.7 +33.4 0.0
15 24.02 штиль 0 10 км 6/1 400 м
[Cu med, cong Ac trans Ci fib]
+25.3 +23.9 92 +35 +35 очень
душно
1009.0 999.5
18 24.02 штиль 0 10 км 6/3 300 м
[Frnb Ac trans Ci fib]
+24.4 +23.6 95 +33 +33 очень
душно
1007.6 998.1
21 24.02 штиль 0 10 км 9/5 270 м
[Frnb Ac trans Ci fib]
+23.6 +22.7 95 +31 +31 очень
душно
1008.8 999.3
00 25.02 ЮЗ 2 10 км 9/5 400 м
[Cu med, cong Ac trans Ci fib]
+28.2 +24.6 81 +40 +44 очень
душно
1009.8 1000.3 +23.0
03 25.02 С 5 10 км 9/4 400 м
[Cu med, cong Ac trans Ci fib]
+30.7 +23.9 67 +42 +46 опасность
перегрева
1007.0 997.5
06 25.02 С 7 10 км 9/4 400 м
[Cu med, cong Ac trans Ci fib]
+31.7 +24.8 67 +45 +46 опасность
перегрева
1004.5 995.0
09 25.02 З 5 10 км 9/4 400 м
[Cu Sc Ac trans Ci fib]
+28.3 +23.4 75 +38 +38 очень
душно
1006.1 996.6
12 25.02 З 2 10 км 6/3 400 м
[Cu Sc Ac trans Ci fib]
+26.0 +23.5 86 +35 +35 очень
душно
1008.4 998.8 +33.0
15 25.02 ЮВ 1 10 км 6/3 400 м
[Cu Sc Ac trans Ci fib]
+25.0 +22.5 86 +33 +33 очень
душно
1008.5 998.9
18 25.02 штиль 0 9000 м 8/3 300 м
[Frnb Ac trans Ci fib]
+24.8 +23.1 90 +33 +33 очень
душно
1006.9 997.3
21 25.02 штиль 0 9000 м 9/6 270 м
[Frnb Ac trans Ci fib]
+24.4 +22.5 89 +32 +32 очень
душно
1007.8 998.3

 

Местоположение метеостанции Sentani Airport (Индонезия): широта -2.58 долгота 140.52 высота над уровнем моря 99 м.

В архиве по умолчанию представлена погода в Sentani Airport за последнюю неделю. Архивные данные за месяц целиком и за предыдущие месяцы, начиная с января 2011 года, Вы можете получить, выбрав интересующий диапазон дат из раскрывающегося списка и нажав кнопку "Ввод!".

Внимание! Время в таблицах - всемирное. Для получения местного времени необходимо прибавить поправку, которая в Sentani Airport равна 7 ч.

Смотрите также архив погоды в соседних городах и на ближайших метеорологических станциях:

Погода в Jayapura (Индонезия) (21 км)
Погода в Sarmi (Индонезия) (218 км)
Погода в Wamena (Индонезия) (241 км)
Погода в Tanah Merah (Индонезия) (392 км)
Погода в Kokonao (Индонезия) (434 км)
Погода в Serui (Индонезия) (483 км)
Погода в Enarotali (Индонезия) (484 км)
Погода в Biak (Индонезия) (514 км)
Погода в Nabire (Индонезия) (564 км)
Погода в Merauke (Индонезия) (655 км)

Пояснения к столбцам:

Ветер - указаны скорость ветра в м/с - средняя за 10 мин, порывы в срок и между сроками (в фигурных скобках) и направление, откуда дует ветер: С - северный, СВ - северо-восточный, В - восточный, ЮВ - юго-восточный, Ю - южный, ЮЗ - юго-западный, З - западный, СЗ - северо-западный.
Видимость - горизонтальная дальность видимости в метрах или километрах. При видимости от 1 до 10 км при отсутствии осадков обычно наблюдается дымка, при ухудшении видимости до 1 км и менее - туман. В сухую погоду видимость может ухудшаться дымом, пылью или мглою.
Явления - указаны атмосферные явления, наблюдавшиеся в срок или в последний час перед сроком; фигурными скобками обозначены явления, наблюдавшиеся между сроками (за 1-3 часа до срока); квадратными скобками обозначены град или гололедные отложения с указанием их диаметра в мм.
Облачность - указаны через наклонную черту общая и нижняя облачность в баллах и высота нижней границы облаков в метрах; квадратными скобками обозначены формы облаков: Ci - перистые, Cs - перисто-слоистые, Cc - перисто-кучевые, Ac - высококучевые, As - высокослоистые, Sc - слоисто-кучевые, Ns - слоисто-дождевые, Cu - кучевые, Cb - кучево-дождевые. Подробнее классификацию облаков см. в Атласе облаков (PDF).
T - Температура воздуха - температура, измеренная на высоте 2 м над землей.
Td - Температура точки росы - температура, при понижении до которой содержащийся в воздухе водяной пар достигнет насыщения.
f - Относительная влажность воздуха - влажноcть воздуха, измеренная на высоте 2 м над землей.
Te - Эффективная температура - температура, которую ощущает одетый по сезону человек в тени. Характеристика душности погоды. При расчете учитывается влияние влажности воздуха и скорости ветра на теплоощущения человека.
Tes - Эффективная температура на солнце - температура, которую ощущает человек, с поправкой на солнечный нагрев. Характеристика знойности погоды. Зависит от высоты солнца над горизонтом, облачности и скорости ветра. Ночью, в пасмурную погоду, а также при ветре 12 м/с и более поправка равна нулю.
P - Атмосферное давление - приведенное к уровню моря атмосферное давление.
Po - Атмосферное давление - измеренное на уровне метеостанции атмосферное давление.
Tmin - Минимальная температура - минимум температуры воздуха на высоте 2 м над землей.
Tmax - Максимальная температура - максимум температуры воздуха на высоте 2 м над землей.
R - Количество осадков - Количество выпавших осадков за период времени, мм. При наведении курсора мыши на число - период времени, за который выпало указанное количество осадков.
R24 - Количество осадков - Количество выпавших осадков за 24 часа, мм.
S - Снежный покров - Высота снежного покрова, см. При наведении курсора мыши на число - состояние снежного покрова и степень покрытия местности в баллах.